Wind_Speed
7 7 7 7 7 7 7 8 8 7 7 6 6 6 6 6 5 5 5 5 5 6 6 7 7 7 8 8 8 8 8 8 8 9 9 9 9 10 11 11 11 11 11
9 9 9 9 8 8 8 8 8 9 8 8 7 7 8 8 6 6 6 6 6 7 8 8 9 9 9 9 9 9 9 10 10 10 11 10 11 10 11 11 12 13 12
9 9 10 9 9 9 8 8 8 9 9 9 9 8 8 8 8 8 8 7 8 9 9 10 10 10 10 10 11 11 11 11 12 12 12 12 12 11 11 12 13 14 14
10 10 10 10 9 9 9 9 9 10 10 10 10 9 10 10 10 10 9 9 10 11 11 11 11 11 12 12 11 11 12 12 12 13 13 14 13 13 13 13 14 14 15
11 11 11 11 10 11 10 10 11 11 10 11 10 11 11 11 11 11 11 11 12 12 12 12 12 13 13 13 13 12 13 13 13 13 14 15 15 15 14 15 16 16 17
12 12 12 12 12 12 11 12 12 11 12 12 10 11 12 12 12 12 12 12 13 13 13 13 14 14 14 14 14 14 14 14 15 15 15 16 16 16 17 17 17 18 18
13 14 13 13 13 13 13 13 12 12 12 12 12 12 13 13 14 14 13 14 14 14 14 15 15 16 16 16 16 16 16 16 16 16 16 17 17 18 18 19 19 19 19
15 15 15 15 14 14 14 14 14 14 14 14 14 14 13 13 14 15 15 15 16 16 16 16 17 17 17 18 17 17 17 17 17 17 17 18 18 19 20 20 21 21 21
16 16 16 16 15 14 15 15 15 15 15 15 15 15 14 14 14 15 16 16 16 17 17 17 17 17 18 18 19 19 18 18 19 19 19 19 20 21 21 22 22 22 23
18 17 17 16 16 15 16 16 16 16 16 16 16 16 16 16 16 16 16 16 17 17 18 18 18 18 19 19 20 19 19 20 20 20 21 21 21 22 22 22 23 23 24
19 19 19 18 18 17 17 18 18 18 18 17 17 17 17 17 17 16 16 17 18 18 19 19 19 19 20 20 20 21 21 21 21 21 22 22 22 22 23 23 23 24 24
19 19 19 19 19 19 19 19 19 19 19 19 18 18 18 18 18 18 18 18 19 19 19 20 20 21 21 21 21 22 22 22 22 22 23 23 23 23 23 23 23 23 24
19 19 20 20 21 20 20 20 20 20 20 20 19 19 19 19 19 19 20 19 19 19 20 20 20 21 21 22 22 22 22 23 22 23 23 23 24 24 23 24 24 24 25
18 18 19 20 21 20 20 20 20 20 21 20 20 20 20 20 20 20 20 21 21 21 21 21 21 22 22 22 22 22 22 22 23 23 23 23 24 24 24 24 24 24 25
19 19 20 21 21 21 21 21 21 20 20 20 20 20 21 21 21 21 21 21 21 22 22 22 23 23 23 23 23 23 23 23 23 23 23 23 24 24 24 24 23 24 24
21 21 21 21 21 21 21 22 21 21 21 21 21 21 21 21 21 22 22 22 22 22 22 23 23 24 24 24 24 23 23 23 23 24 24 23 23 24 25 24 24 24 24
21 21 22 22 21 21 22 21 21 22 22 22 22 22 22 22 22 22 22 22 23 23 24 25 25 25 25 25 24 23 23 24 24 24 24 24 25 25 25 24 24 24 24
22 22 23 22 22 22 22 22 22 22 22 22 22 23 23 23 23 23 24 24 23 23 24 25 26 25 25 26 25 24 24 24 24 24 25 25 25 25 25 25 25 25 25
24 24 24 24 24 24 23 24 24 23 23 22 23 23 23 24 24 24 24 24 25 25 25 25 24 25 25 25 24 24 24 24 24 25 25 25 25 25 24 25 25 25 25
25 26 26 26 26 26 25 25 25 24 23 24 24 24 25 25 26 26 25 25 26 26 26 26 25 25 24 24 24 24 25 25 25 25 25 24 24 24 24 24 24 25 25
27 27 27 28 28 27 27 26 26 26 25 26 26 26 26 27 27 27 26 27 27 27 26 26 26 25 24 24 24 24 25 26 26 26 26 25 25 24 24 24 24 25 25
28 29 29 29 29 29 29 28 28 28 28 28 28 28 28 28 28 28 28 28 28 27 26 26 26 26 25 25 25 25 26 26 26 26 26 25 26 25 24 24 24 25 26
30 30 31 30 29 29 30 29 29 28 28 29 29 29 29 28 28 29 28 27 27 27 27 26 26 26 26 26 25 26 26 27 27 26 26 25 25 26 25 25 24 25 25
30 31 31 30 30 30 30 29 29 29 28 28 28 29 29 29 29 28 28 28 28 28 27 27 26 26 26 26 26 26 26 27 27 26 25 25 24 25 26 26 25 25 24
30 31 31 31 31 30 30 30 30 29 29 29 29 29 29 29 29 29 29 28 28 28 27 27 27 26 26 26 26 26 26 27 26 25 25 25 25 25 25 25 25 24 24
30 30 31 31 31 30 30 29 29 29 29 29 29 29 29 29 29 29 29 28 28 28 27 27 26 26 26 27 27 26 26 26 25 25 25 25 25 25 24 24 24 24 25
Wind_Direction
341 335 330 325 324 321 317 315 312 314 311 308 304 305 302 296 295 291 293 285 281 278 278 282 283 281 278 276 274 271 268 266 261 260 261 261 258 254 251 255 255 256 256
328 326 322 320 317 319 315 314 313 308 303 300 297 293 296 293 293 287 286 283 277 277 280 282 281 280 280 280 277 273 269 266 264 264 264 260 258 254 255 261 260 259 259
324 323 320 315 313 313 312 307 305 308 303 298 295 292 290 290 290 288 287 284 279 276 278 280 279 281 280 280 279 277 273 269 267 265 263 260 259 259 262 265 264 259 260
321 321 321 317 314 311 307 304 305 305 302 299 295 289 283 284 285 286 286 285 283 279 278 280 279 280 280 278 279 280 277 274 272 271 266 264 263 261 263 263 263 263 262
313 315 317 312 307 307 305 303 304 305 305 299 289 287 284 281 281 281 281 282 282 280 279 281 282 283 282 279 278 279 279 279 276 274 270 266 265 264 264 263 264 264 265
309 310 310 308 307 305 304 304 307 303 301 297 288 286 284 280 278 278 277 278 280 281 281 282 282 284 283 279 278 277 278 278 277 274 271 269 267 266 268 267 268 266 267
306 304 304 303 302 300 299 299 301 300 301 297 289 286 284 281 278 279 280 279 278 279 281 283 282 282 281 279 279 279 280 280 278 275 273 271 269 268 269 270 270 270 270
303 301 298 297 297 295 297 298 297 297 299 298 296 291 289 284 280 281 283 282 282 280 280 282 283 283 281 278 278 279 280 278 278 277 274 273 272 272 270 271 272 274 273
296 295 294 294 293 292 293 294 297 297 298 298 295 294 288 287 289 288 286 284 283 282 281 282 284 284 283 280 278 279 279 277 276 276 275 275 275 275 273 273 272 273 273
292 291 292 292 291 290 291 292 294 296 297 295 291 291 287 286 290 291 289 287 285 284 282 281 282 283 284 284 282 280 280 278 277 276 276 275 276 276 275 276 275 274 273
289 288 288 289 290 288 289 290 291 292 293 291 290 290 289 288 288 288 287 286 285 286 285 282 281 283 284 284 283 281 280 282 281 279 276 275 276 277 277 276 275 274 273
286 285 285 285 286 286 286 288 290 290 291 289 288 288 288 288 286 285 286 285 284 284 283 284 284 284 284 284 282 281 280 282 281 279 277 275 274 275 275 275 274 274 273
286 284 284 284 285 284 285 287 287 287 287 287 286 285 286 286 285 285 285 286 288 285 283 284 284 284 285 284 284 283 282 280 281 282 280 277 275 275 274 273 273 274 273
285 285 286 284 285 286 287 287 286 287 288 287 284 284 284 285 286 286 286 286 288 289 287 285 284 284 284 284 284 284 284 282 281 282 282 279 276 275 275 276 274 273 273
283 284 285 285 285 287 288 288 287 286 285 287 284 283 284 283 284 285 284 284 287 289 289 287 286 286 285 285 285 285 285 284 282 282 283 279 276 275 277 277 276 274 272
281 283 284 285 285 286 289 289 287 287 286 287 285 281 283 284 283 283 284 283 285 287 287 288 287 286 286 286 286 285 284 283 283 283 282 280 277 276 278 276 274 274 274
280 281 282 285 285 285 287 288 287 286 286 286 285 279 281 284 284 284 285 287 288 288 289 288 288 287 285 284 284 283 283 283 282 281 281 279 278 277 277 276 275 274 273
279 281 282 283 285 284 285 285 286 286 284 283 284 281 280 283 284 285 286 288 290 290 290 290 288 287 286 285 283 283 283 283 283 282 280 278 277 277 277 276 274 274 273
278 279 281 282 285 284 284 286 287 286 283 281 281 281 280 281 284 286 287 289 291 292 290 288 288 290 290 289 285 282 282 283 282 281 280 278 279 278 276 275 275 274 272
279 279 280 282 283 284 284 285 286 286 285 283 282 281 282 283 283 285 286 288 290 291 289 288 288 290 290 288 286 283 282 281 281 280 279 278 278 277 277 275 275 274 272
277 278 280 282 283 284 284 284 284 284 285 284 283 283 283 284 283 284 284 285 288 290 289 288 289 289 288 286 286 285 284 282 281 279 278 278 276 275 275 276 275 274 272
276 277 279 280 282 283 284 284 285 284 282 282 282 283 283 282 283 284 285 285 286 288 289 289 290 288 287 287 287 285 284 282 280 280 280 278 274 274 274 275 274 273 273
276 277 278 279 280 282 284 284 285 284 283 282 281 281 281 281 282 284 285 286 286 286 286 286 287 286 286 285 286 285 284 283 281 279 281 281 278 273 272 273 274 274 275
275 277 278 279 279 280 282 283 283 283 282 282 281 281 281 280 282 283 284 284 284 285 284 284 284 285 286 284 283 284 284 283 282 280 278 279 278 276 274 273 273 274 273
276 277 277 277 278 280 281 282 281 282 282 281 280 280 280 280 280 281 282 283 283 284 284 284 283 284 284 284 284 285 285 283 281 279 277 275 276 276 276 275 274 272 272
276 276 277 277 277 278 280 280 281 281 282 282 281 280 279 279 279 280 280 282 281 282 283 283 283 283 282 282 284 284 284 284 283 281 278 276 277 277 277 276 274 272 272
Height
5902 5900 5899 5897 5896 5895 5894 5892 5891 5889 5888 5886 5885 5884 5883 5882 5881 5880 5879 5879 5878 5878 5877 5877 5877 5876 5876 5875 5875 5874 5874 5874 5873 5873 5873 5873 5872 5873 5873 5873 5873 5874 5874
5901 5899 5898 5896 5895 5893 5892 5891 5889 5888 5886 5885 5884 5883 5882 5880 5880 5879 5878 5877 5877 5876 5876 5875 5875 5874 5874 5873 5873 5872 5872 5872 5871 5871 5871 5871 5871 5870 5870 5871 5871 5871 5871
5900 5898 5896 5895 5893 5892 5890 5889 5887 5886 5884 5883 5882 5881 5880 5879 5878 5877 5876 5876 5875 5875 5874 5874 5873 5872 5872 5871 5870 5870 5870 5869 5869 5869 5869 5868 5868 5868 5868 5868 5868 5868 5868
5898 5896 5895 5893 5891 5890 5888 5887 5885 5884 5882 5881 5880 5879 5878 5877 5876 5875 5875 5874 5873 5873 5872 5872 5871 5870 5869 5868 5867 5867 5867 5866 5866 5866 5865 5865 5865 5865 5865 5865 5864 5864 5864
5896 5894 5893 5891 5890 5888 5886 5885 5884 5882 5881 5879 5878 5877 5876 5875 5874 5873 5872 5871 5871 5870 5869 5869 5868 5867 5866 5865 5864 5864 5863 5863 5863 5862 5862 5862 5861 5861 5861 5861 5861 5861 5860
5894 5892 5890 5889 5887 5886 5884 5883 5881 5880 5878 5876 5875 5874 5873 5872 5871 5870 5869 5868 5868 5867 5866 5865 5865 5864 5863 5862 5861 5860 5860 5859 5859 5859 5858 5858 5857 5857 5857 5857 5856 5856 5856
5891 5889 5888 5886 5885 5883 5882 5880 5879 5877 5875 5873 5872 5871 5869 5869 5868 5867 5866 5865 5864 5863 5863 5862 5861 5860 5859 5858 5857 5856 5856 5855 5855 5854 5854 5853 5853 5853 5852 5852 5851 5851 5851
5888 5886 5885 5883 5882 5880 5879 5877 5876 5874 5872 5871 5869 5868 5866 5865 5864 5863 5862 5861 5860 5859 5859 5858 5857 5856 5854 5853 5853 5852 5851 5851 5850 5850 5849 5849 5848 5847 5847 5847 5847 5846 5846
5884 5883 5881 5880 5878 5877 5875 5874 5872 5871 5869 5867 5866 5865 5863 5862 5860 5859 5858 5857 5856 5855 5854 5853 5852 5851 5850 5849 5848 5847 5847 5846 5845 5845 5844 5844 5843 5842 5842 5841 5841 5841 5840
5880 5879 5877 5876 5874 5873 5872 5870 5868 5867 5865 5863 5862 5861 5859 5858 5857 5856 5854 5853 5852 5851 5850 5848 5848 5846 5845 5844 5843 5842 5841 5841 5840 5839 5839 5838 5838 5837 5836 5835 5835 5835 5834
5876 5874 5873 5871 5870 5869 5867 5866 5864 5862 5861 5859 5857 5856 5855 5854 5853 5851 5850 5849 5847 5846 5845 5844 5842 5841 5840 5839 5838 5837 5836 5835 5835 5834 5833 5832 5832 5831 5830 5830 5829 5828 5828
5871 5870 5868 5867 5865 5864 5862 5861 5859 5858 5856 5854 5853 5851 5850 5849 5848 5847 5846 5844 5843 5842 5840 5838 5837 5836 5835 5833 5832 5831 5830 5830 5829 5828 5827 5826 5825 5825 5824 5823 5822 5822 5821
5866 5864 5863 5862 5860 5859 5857 5856 5854 5852 5851 5849 5848 5847 5845 5844 5843 5842 5840 5839 5837 5836 5834 5833 5832 5830 5829 5828 5826 5825 5824 5824 5823 5822 5821 5820 5819 5818 5817 5816 5816 5815 5814
5860 5859 5858 5856 5854 5853 5851 5850 5848 5847 5845 5844 5843 5841 5840 5839 5837 5836 5835 5833 5832 5830 5828 5827 5826 5824 5823 5821 5820 5819 5818 5817 5816 5815 5814 5813 5812 5812 5810 5810 5809 5808 5807
5855 5854 5852 5850 5849 5847 5845 5844 5842 5841 5839 5838 5837 5835 5834 5833 5832 5830 5829 5827 5826 5824 5822 5820 5819 5818 5817 5815 5814 5812 5812 5811 5810 5809 5807 5806 5806 5805 5804 5802 5802 5801 5800
5849 5848 5846 5844 5843 5841 5840 5838 5836 5835 5833 5832 5831 5829 5828 5827 5825 5824 5823 5821 5820 5818 5816 5815 5813 5811 5810 5809 5807 5806 5805 5804 5803 5802 5801 5800 5799 5798 5796 5795 5794 5793 5793
5843 5841 5840 5838 5837 5835 5834 5832 5830 5829 5827 5826 5824 5823 5822 5821 5819 5818 5816 5815 5813 5811 5810 5808 5807 5805 5803 5802 5801 5799 5798 5797 5796 5795 5794 5793 5792 5790 5789 5787 5786 5786 5785
5836 5835 5833 5832 5830 5829 5827 5826 5824 5822 5821 5820 5818 5817 5815 5814 5813 5811 5810 5808 5806 5804 5803 5801 5799 5797 5795 5794 5793 5792 5791 5790 5789 5788 5787 5785 5784 5783 5781 5780 5778 5778 5777
5829 5827 5826 5825 5824 5822 5821 5819 5818 5816 5814 5813 5812 5811 5809 5808 5806 5805 5803 5801 5799 5798 5796 5793 5792 5789 5788 5787 5786 5784 5783 5782 5781 5780 5779 5778 5777 5775 5774 5772 5771 5770 5769
5821 5820 5819 5818 5816 5815 5813 5812 5811 5809 5808 5806 5805 5803 5802 5800 5799 5798 5796 5794 5792 5790 5788 5787 5785 5783 5781 5780 5778 5777 5776 5775 5774 5773 5771 5770 5769 5767 5766 5764 5763 5762 5761
5813 5812 5811 5810 5808 5807 5806 5804 5803 5802 5800 5799 5797 5796 5794 5792 5791 5790 5788 5786 5785 5783 5781 5779 5777 5775 5774 5772 5771 5769 5768 5766 5765 5764 5763 5762 5761 5759 5758 5757 5756 5755 5754
5805 5803 5802 5801 5800 5799 5797 5796 5795 5793 5792 5790 5789 5787 5785 5784 5782 5781 5780 5778 5776 5775 5773 5771 5770 5768 5766 5765 5763 5761 5760 5758 5757 5756 5755 5754 5752 5751 5751 5750 5748 5747 5746
5796 5795 5794 5793 5791 5790 5789 5787 5786 5784 5783 5781 5780 5778 5777 5775 5774 5773 5771 5770 5768 5767 5765 5763 5762 5760 5759 5757 5755 5753 5752 5750 5748 5747 5746 5745 5744 5743 5743 5742 5741 5740 5739
5787 5785 5784 5783 5783 5781 5780 5778 5777 5775 5774 5772 5771 5769 5768 5767 5765 5764 5763 5761 5760 5758 5757 5755 5754 5752 5751 5749 5747 5745 5744 5742 5740 5739 5738 5737 5736 5735 5735 5734 5733 5732 5732
5777 5776 5775 5774 5773 5772 5771 5769 5768 5766 5765 5763 5762 5760 5759 5758 5756 5755 5754 5752 5751 5750 5748 5747 5746 5744 5743 5741 5740 5738 5736 5734 5732 5730 5730 5729 5728 5727 5727 5726 5725 5724 5723
5768 5767 5766 5765 5764 5763 5761 5760 5759 5757 5756 5754 5753 5751 5750 5748 5747 5746 5745 5743 5742 5741 5740 5739 5738 5736 5735 5734 5732 5730 5728 5726 5724 5723 5721 5721 5720 5720 5719 5718 5717 5717 5716